Location: Waco, TX
(31.5480°N, 97.1670°W)
Time: 03:09:48
(UTC-05:00)

ISS - Pass Details

Date: 16 September 2017
Orbit: 401 x 407 km, 51.6° (Epoch: 22 September)

Event Time Altitude Azimuth Distance (km) Brightness Sun altitude
Rises 08:23:44 0° 307° (NW) 2,327 -0.5 14.1°
Reaches altitude 10° 08:25:53 10° 299° (WNW) 1,464 -1.5 14.6°
Maximum altitude 08:28:58 39° 229° (SW) 626 -3.0 15.2°
Drops below altitude 10° 08:32:03 10° 159° (SSE) 1,454 -0.6 15.9°
Sets 08:34:11 0° 151° (SSE) 2,309 0.5 16.3°
